Effective Sunday, March 17, 2024, the National Weather Service National Data Buoy Center will discontinue its Dial-A-Buoy Interactive Voice Response system. For more information, see Service Change Notice 24-06 (PDF).

Station AJXA2 - Juneau AJ Dock, AK Image indicating link to RSS feed of recent meteorological observations for station AJXA2


Conditions at AJXA2 as of
(8:12 pm AKST on 02/29/2024)
0512 GMT on 03/01/2024:
     

Click on the graph icon in the table below to see a time series plot of the last five days of that observation.

5-day plot - Wind Direction Wind Direction (WDIR): NE ( 50 deg true )
5-day plot - Wind Speed Wind Speed (WSPD): 15 kts
5-day plot - Wind Gust Wind Gust (GST): 34 kts
5-day plot - Atmospheric Pressure Atmospheric Pressure (PRES):29.46 in
5-day plot - Air Temperature Air Temperature (ATMP): 27.1 °F
5-day plot - Dew Point Dew Point (DEWP): 7.0 °F
5-day plot - Wind Chill Wind Chill (CHILL): 14.5 °F
5-day plot - Wind Speed at 10 Meters Wind Speed at 10 meters (WSPD10M): 17 kts
5-day plot - Wind Speed at 20 Meters Wind Speed at 20 meters (WSPD20M): 19 kts
5-day plot -  Wind Speed, Wind Gust and Atmospheric Pressure Combined plot of Wind Speed, Gust, and Air Pressure
Previous observations
TIME
(AKST)
5-day plot - Wind Direction
WDIR
 
5-day plot - Wind Speed
WSPD
kts
5-day plot - Wind Gust
GST
kts
5-day plot - Wave Height
WVHT
ft
5-day plot - Dominant Wave Period
DPD
sec
5-day plot - Average Wave Period
APD
sec
5-day plot - Mean Wave Direction
MWD
 
5-day plot - Atmospheric Pressure
PRES
in
5-day plot - Pressure Tendency
PTDY
in
5-day plot - Air Temperature
ATMP
°F
5-day plot - Water Temperature
WTMP
°F
5-day plot - Dew Point
DEWP
°F
5-day plot - Salinity
SAL
psu
5-day plot - Visibility
VIS
nmi
5-day plot - Tide (above MLLW)
TIDE
ft
2024-02-29 08:02 pmENE 13 28----29.46- 27.1- 7.2---
2024-02-29 07:52 pm NE 16 35----29.45- 27.1- 7.0---
2024-02-29 07:42 pm NE 17 33----29.45- 27.1- 6.8---
2024-02-29 07:32 pm NE 18 41----29.44- 27.1- 6.8---
2024-02-29 07:22 pm NE 18 32----29.44- 27.1- 7.0---
2024-02-29 07:12 pm NE 13 26----29.44- 27.1- 7.3---
2024-02-29 07:02 pm NE 17 38----29.44- 27.0- 7.3---
2024-02-29 06:52 pmENE 14 29----29.44- 27.0- 7.3---
2024-02-29 06:42 pmENE 15 40----29.43- 27.1- 7.5---
2024-02-29 06:32 pm NE 17 33----29.43- 27.1- 7.3---
2024-02-29 06:22 pmENE 15 30----29.43- 27.0- 7.5---
2024-02-29 06:12 pmENE 18 46----29.42- 27.1- 7.5---
2024-02-29 06:02 pm NE 17 32----29.42- 27.3- 7.7---
2024-02-29 05:52 pmENE 17 42----29.41- 27.1- 7.9---
2024-02-29 05:42 pmENE 17 33----29.41- 27.1- 7.7---
2024-02-29 05:32 pmENE 14 31----29.41- 27.1- 8.1---
2024-02-29 05:22 pmENE 14 36----29.41- 27.3- 7.9---
2024-02-29 05:12 pmENE 16 37----29.41- 27.3- 7.9---
2024-02-29 05:02 pmENE 17 31----29.40- 27.5- 7.9---
2024-02-29 04:52 pmENE 17 36----29.40- 27.7- 7.9---
2024-02-29 04:42 pmENE 14 27----29.40- 27.5- 8.4---
2024-02-29 04:32 pmENE 19 36----29.39- 27.5- 8.1---
2024-02-29 04:22 pmENE 17 34----29.39- 27.5- 8.2---
2024-02-29 04:12 pmENE 19 38----29.39- 27.5- 8.1---
2024-02-29 04:02 pm E 17 38----29.39- 27.5- 8.1---
2024-02-29 03:52 pmENE 19 34----29.39- 27.9- 8.1---
2024-02-29 03:42 pmENE 19 32----29.39- 27.9- 8.1---
2024-02-29 03:32 pmENE 19 34----29.39- 27.7- 8.1---
2024-02-29 03:22 pmENE 16 36----29.38- 27.9- 8.2---
2024-02-29 03:12 pmENE 15 28----29.38- 28.0- 8.4---
2024-02-29 02:52 pmENE 15 29----29.38- 27.9- 8.4---
2024-02-29 02:12 pmENE 18 31----29.37- 27.9- 7.9---
2024-02-29 02:02 pmENE 15 31----29.37- 27.9- 7.9---
2024-02-29 01:52 pm E 13 29----29.38- 27.7- 8.1---
2024-02-29 01:42 pmENE 17 35----29.37- 27.7- 7.9---
2024-02-29 01:32 pmENE 16 32----29.37- 27.7- 8.1---
2024-02-29 01:22 pmENE 15 30----29.37- 27.7- 7.9---
2024-02-29 01:12 pmENE 16 33----29.37- 27.5- 7.9---
2024-02-29 01:02 pmENE 17 31----29.37- 27.3- 8.1---
2024-02-29 12:52 pm E 14 31----29.37- 27.5- 8.1---
2024-02-29 12:42 pm E 15 35----29.36- 27.3- 7.9---
2024-02-29 12:32 pm E 16 33----29.36- 27.3- 7.9---
2024-02-29 12:22 pm E 16 36----29.36- 27.1- 8.1---
2024-02-29 12:12 pmENE 18 32----29.36- 27.3- 7.9---
2024-02-29 12:02 pmENE 18 29----29.36- 27.1- 7.9---
2024-02-29 11:52 amENE 19 35----29.35- 27.0- 7.9---
2024-02-29 11:42 amENE 15 41----29.36- 27.1- 7.9---
2024-02-29 11:32 amENE 17 37----29.35- 27.0- 7.7---
2024-02-29 11:22 amENE 20 37----29.35- 27.0- 7.7---
2024-02-29 11:12 am E 18 32----29.34- 27.0- 7.7---
2024-02-29 11:02 amENE 16 37----29.34- 27.1- 7.9---
2024-02-29 10:52 amENE 17 31----29.34- 27.0- 7.5---
2024-02-29 10:42 amENE 18 30----29.34- 26.8- 7.7---
2024-02-29 10:32 amENE 20 33----29.34- 26.8- 7.9---
2024-02-29 10:22 amENE 17 33----29.34- 26.8- 7.9---
2024-02-29 10:12 amENE 16 31----29.34- 26.8- 7.9---
2024-02-29 10:02 amENE 15 32----29.34- 26.6- 7.9---
2024-02-29 09:52 amENE 18 33----29.33- 26.4- 7.7---
2024-02-29 09:42 amENE 20 37----29.32- 26.6- 7.7---
2024-02-29 09:32 amENE 20 35----29.32- 26.4- 7.9---
2024-02-29 09:22 amENE 21 39----29.31- 26.6- 7.9---
2024-02-29 09:12 amENE 21 35----29.31- 26.4- 8.2---
2024-02-29 09:02 amENE 18 29----29.31- 26.4- 8.4---
2024-02-29 08:52 amENE 21 35----29.30- 26.6- 8.4---
2024-02-29 08:42 amENE 21 35----29.30- 26.6- 8.4---
2024-02-29 08:32 amENE 22 36----29.29- 26.4- 8.6---
2024-02-29 08:22 amENE 20 36----29.29- 26.4- 8.6---
2024-02-29 08:12 amENE 21 38----29.29- 26.2- 8.6---
2024-02-29 08:02 amENE 21 36----29.29- 26.1- 8.8---
2024-02-29 07:52 amENE 23 41----29.28- 26.2- 8.6---
2024-02-29 07:42 amENE 23 41----29.28- 26.2- 8.6---
2024-02-29 07:32 amENE 20 38----29.28- 26.2- 8.8---
2024-02-29 07:22 amENE 20 34----29.28- 26.4- 8.8---
2024-02-29 07:12 amENE 20 35----29.27- 26.4- 9.0---
2024-02-29 07:02 amENE 20 36----29.27- 26.6- 9.1---
2024-02-29 06:52 amENE 18 36----29.27- 26.4- 9.1---
2024-02-29 06:42 amENE 19 35----29.27- 26.4- 9.1---
2024-02-29 06:32 amENE 18 30----29.27- 26.4- 9.1---
2024-02-29 06:22 amENE 17 33----29.27- 26.6- 9.3---
2024-02-29 06:12 amENE 19 32----29.27- 26.6- 9.3---
2024-02-29 06:02 am E 19 37----29.26- 26.4- 9.3---
2024-02-29 05:52 amENE 21 35----29.26- 26.6- 9.3---
2024-02-29 05:42 amENE 21 40----29.26- 26.4- 9.1---
2024-02-29 05:32 amENE 20 39----29.26- 26.6- 9.5---
2024-02-29 05:22 amENE 20 34----29.26- 26.6- 9.5---
2024-02-29 05:12 amENE 20 33----29.25- 26.6- 9.5---
2024-02-29 05:02 amENE 19 33----29.26- 26.6- 9.7---
2024-02-29 04:52 amENE 22 37----29.25- 26.6- 9.1---
2024-02-29 04:42 am NE 22 39----29.25- 26.6- 9.3---
2024-02-29 04:32 am NE 22 43----29.25- 26.4- 9.3---
2024-02-29 04:22 am NE 22 42----29.25- 26.8- 9.7---
2024-02-29 04:12 amENE 22 36----29.24- 27.1- 9.7---
2024-02-29 04:02 am NE 22 37----29.23- 27.1- 9.9---
2024-02-29 03:52 am NE 25 42----29.23- 27.0- 9.9---
2024-02-29 03:42 am NE 25 37----29.23- 27.0- 9.9---
2024-02-29 03:32 am NE 27 44----29.23- 26.8- 9.5---
2024-02-29 03:22 am NE 20 38----29.23- 27.5- 10.0---
2024-02-29 03:12 amENE 20 35----29.23- 27.1- 10.0---
2024-02-29 03:02 amENE 22 34----29.24- 27.3- 9.7---
2024-02-29 02:52 am NE 23 36----29.23- 27.1- 9.9---
2024-02-29 02:42 am NE 22 34----29.24- 27.1- 9.9---
2024-02-29 02:32 am NE 23 38----29.23- 27.1- 10.0---
2024-02-29 02:22 amENE 20 36----29.23- 27.5- 10.0---
2024-02-29 02:12 amENE 19 36----29.23- 27.9- 10.2---
2024-02-29 02:02 amENE 22 36----29.23- 27.7- 10.2---
2024-02-29 01:52 am NE 16 33----29.23- 28.4- 10.9---
2024-02-29 01:42 am NE 19 32----29.23- 27.7- 10.8---
2024-02-29 01:32 amENE 22 37----29.23- 27.0- 10.2---
2024-02-29 01:22 amENE 19 34----29.23- 27.1- 10.8---
2024-02-29 01:12 amENE 21 35----29.22- 27.7- 10.8---
2024-02-29 01:02 am NE 10 29----29.23- 27.7- 12.6---
2024-02-29 12:52 amENE 18 36----29.22- 27.9- 12.0---
2024-02-29 12:42 amENE 15 36----29.23- 27.5- 12.0---
2024-02-29 12:32 amENE 17 32----29.22- 27.5- 11.8---
2024-02-29 12:22 am NE 19 34----29.22- 27.5- 11.8---
2024-02-29 12:12 amENE 12 31----29.23- 27.7- 12.4---
2024-02-29 12:02 amENE 16 30----29.23- 26.8- 12.2---
2024-02-28 11:52 pmENE 18 29----29.22- 27.0- 11.8---
2024-02-28 11:42 pm E 14 28----29.23- 26.2- 12.4---
2024-02-28 11:32 pmENE 17 31----29.22- 26.2- 12.0---
2024-02-28 11:22 pmENE 17 30----29.23- 26.2- 11.8---
2024-02-28 11:12 pm S 6 12----29.23- 25.7- 13.3---
2024-02-28 11:02 pm SW 5 11----29.23- 25.9- 13.6---
2024-02-28 10:52 pm E 8 22----29.23- 26.2- 12.9---
2024-02-28 10:42 pm W 6 24----29.23- 25.5- 13.5---
2024-02-28 10:32 pmSSW 5 20----29.23- 25.9- 13.3---
2024-02-28 10:22 pm SW 6 12----29.23- 25.9- 13.8---
2024-02-28 10:12 pmENE 9 20----29.23- 26.4- 13.3---
2024-02-28 10:02 pmWSW 4 9----29.23- 25.7- 14.5---
2024-02-28 09:52 pm SW 4 7----29.22- 25.9- 16.0---
2024-02-28 09:42 pm S 4 11----29.22- 26.2- 14.7---
2024-02-28 09:32 pmSSW 2 7----29.22- 25.9- 14.2---
2024-02-28 09:22 pm SW 6 11----29.22- 25.9- 14.4---
2024-02-28 09:12 pm NE 4 12----29.22- 26.1- 14.4---
2024-02-28 09:02 pmSSW 5 14----29.22- 25.5- 14.9---
2024-02-28 08:52 pmWSW 4 7----29.22- 25.2- 16.7---
2024-02-28 08:42 pmWSW 3 7----29.22- 25.5- 15.1---
2024-02-28 08:32 pmSSE 7 16----29.22- 25.9- 15.1---
2024-02-28 08:22 pm S 4 13----29.22- 25.9- 15.1---
2024-02-28 08:12 pm SW 4 8----29.22- 25.9- 15.3---
2024-02-28 08:02 pm W 2 8----29.22- 26.1- 15.8---
2024-02-28 07:52 pmSSW 3 6----29.22- 26.1- 15.8---